Year,Month,Day,Hour,Minute,Value (Times are PST for temperature in C)
2007,05,18,00,00,9.20
2007,05,18,00,01,9.20
2007,05,18,00,02,9.20
2007,05,18,00,03,9.10
2007,05,18,00,04,9.10
2007,05,18,00,05,9.10
2007,05,18,00,06,9.00
2007,05,18,00,07,9.00
2007,05,18,00,08,9.00
2007,05,18,00,09,9.00
2007,05,18,00,10,8.90
2007,05,18,00,11,8.90
2007,05,18,00,12,8.80
2007,05,18,00,13,8.80
2007,05,18,00,14,8.70
2007,05,18,00,15,8.70
2007,05,18,00,16,8.60
2007,05,18,00,17,8.50
2007,05,18,00,18,8.40
2007,05,18,00,19,8.40
2007,05,18,00,20,8.30
2007,05,18,00,21,8.30
2007,05,18,00,22,8.20
2007,05,18,00,23,8.20
2007,05,18,00,24,8.20
2007,05,18,00,25,8.20
2007,05,18,00,26,8.10
2007,05,18,00,27,8.10
2007,05,18,00,28,8.00
2007,05,18,00,29,8.00
2007,05,18,00,30,7.90
2007,05,18,00,31,7.90
2007,05,18,00,32,7.80
2007,05,18,00,33,7.80
2007,05,18,00,34,7.80
2007,05,18,00,35,7.80
2007,05,18,00,36,7.80
2007,05,18,00,37,7.80
2007,05,18,00,38,7.80
2007,05,18,00,39,7.80
2007,05,18,00,40,7.80
2007,05,18,00,41,7.80
2007,05,18,00,42,7.80
2007,05,18,00,43,7.80
2007,05,18,00,44,7.80
2007,05,18,00,45,7.80
2007,05,18,00,46,7.70
2007,05,18,00,47,7.70
2007,05,18,00,48,7.70
2007,05,18,00,49,7.70
2007,05,18,00,50,7.60
2007,05,18,00,51,7.60
2007,05,18,00,52,7.60
2007,05,18,00,53,7.50
2007,05,18,00,54,7.50
2007,05,18,00,55,7.50
2007,05,18,00,56,7.50
2007,05,18,00,57,7.40
2007,05,18,00,58,7.40
2007,05,18,00,59,7.40
2007,05,18,01,00,7.40
2007,05,18,01,01,7.40
2007,05,18,01,02,7.40
2007,05,18,01,03,7.40
2007,05,18,01,04,7.40
2007,05,18,01,05,7.40
2007,05,18,01,06,7.40
2007,05,18,01,07,7.40
2007,05,18,01,08,7.40
2007,05,18,01,09,7.40
2007,05,18,01,10,7.30
2007,05,18,01,11,7.30
2007,05,18,01,12,7.30
2007,05,18,01,13,7.30
2007,05,18,01,14,7.30
2007,05,18,01,15,7.30
2007,05,18,01,16,7.30
2007,05,18,01,17,7.20
2007,05,18,01,18,7.20
2007,05,18,01,19,7.20
2007,05,18,01,20,7.20
2007,05,18,01,21,7.20
2007,05,18,01,22,7.10
2007,05,18,01,23,7.10
2007,05,18,01,24,7.10
2007,05,18,01,25,7.10
2007,05,18,01,26,7.10
2007,05,18,01,27,7.10
2007,05,18,01,28,7.10
2007,05,18,01,29,7.10
2007,05,18,01,30,7.10
2007,05,18,01,31,7.10
2007,05,18,01,32,7.10
2007,05,18,01,33,7.10
2007,05,18,01,34,7.10
2007,05,18,01,35,7.10
2007,05,18,01,36,7.10
2007,05,18,01,37,7.10
2007,05,18,01,38,7.00
2007,05,18,01,39,7.00
2007,05,18,01,40,7.00
2007,05,18,01,41,7.00
2007,05,18,01,42,7.00
2007,05,18,01,43,6.90
2007,05,18,01,44,6.90
2007,05,18,01,45,6.90
2007,05,18,01,46,6.90
2007,05,18,01,47,6.80
2007,05,18,01,48,6.80
2007,05,18,01,49,6.80
2007,05,18,01,50,6.80
2007,05,18,01,51,6.80
2007,05,18,01,52,6.80
2007,05,18,01,53,6.70
2007,05,18,01,54,6.70
2007,05,18,01,55,6.70
2007,05,18,01,56,6.70
2007,05,18,01,57,6.60
2007,05,18,01,58,6.60
2007,05,18,01,59,6.60
2007,05,18,02,00,6.60
2007,05,18,02,01,6.60
2007,05,18,02,02,6.50
2007,05,18,02,03,6.40
2007,05,18,02,04,6.40
2007,05,18,02,05,6.40
2007,05,18,02,06,6.40
2007,05,18,02,07,6.40
2007,05,18,02,08,6.30
2007,05,18,02,09,6.30
2007,05,18,02,10,6.30
2007,05,18,02,11,6.30
2007,05,18,02,12,6.40
2007,05,18,02,13,6.40
2007,05,18,02,14,6.40
2007,05,18,02,15,6.40
2007,05,18,02,16,6.40
2007,05,18,02,17,6.40
2007,05,18,02,18,6.40
2007,05,18,02,19,6.40
2007,05,18,02,20,6.40
2007,05,18,02,21,6.40
2007,05,18,02,22,6.40
2007,05,18,02,23,6.30
2007,05,18,02,24,6.30
2007,05,18,02,25,6.30
2007,05,18,02,26,6.20
2007,05,18,02,27,6.20
2007,05,18,02,28,6.20
2007,05,18,02,29,6.20
2007,05,18,02,30,6.10
2007,05,18,02,31,6.10
2007,05,18,02,32,6.10
2007,05,18,02,33,6.10
2007,05,18,02,34,6.10
2007,05,18,02,35,6.10
2007,05,18,02,36,6.10
2007,05,18,02,37,6.10
2007,05,18,02,38,6.00
2007,05,18,02,39,6.00
2007,05,18,02,40,6.00
2007,05,18,02,41,6.00
2007,05,18,02,42,6.00
2007,05,18,02,43,5.90
2007,05,18,02,44,5.90
2007,05,18,02,45,5.90
2007,05,18,02,46,5.90
2007,05,18,02,47,6.00
2007,05,18,02,48,6.00
2007,05,18,02,49,6.00
2007,05,18,02,50,6.00
2007,05,18,02,51,6.00
2007,05,18,02,52,6.00
2007,05,18,02,53,6.00
2007,05,18,02,54,5.90
2007,05,18,02,55,5.90
2007,05,18,02,56,5.90
2007,05,18,02,57,5.90
2007,05,18,02,58,5.90
2007,05,18,02,59,5.90
2007,05,18,03,00,5.90
2007,05,18,03,01,5.90
2007,05,18,03,02,5.90
2007,05,18,03,03,6.00
2007,05,18,03,04,6.00
2007,05,18,03,05,6.00
2007,05,18,03,06,6.00
2007,05,18,03,07,6.00
2007,05,18,03,08,6.00
2007,05,18,03,09,6.00
2007,05,18,03,10,5.90
2007,05,18,03,11,5.90
2007,05,18,03,12,5.80
2007,05,18,03,13,5.80
2007,05,18,03,14,5.80
2007,05,18,03,15,5.70
2007,05,18,03,16,5.70
2007,05,18,03,17,5.70
2007,05,18,03,18,5.70
2007,05,18,03,19,5.70
2007,05,18,03,20,5.70
2007,05,18,03,21,5.60
2007,05,18,03,22,5.60
2007,05,18,03,23,5.60
2007,05,18,03,24,5.60
2007,05,18,03,25,5.50
2007,05,18,03,26,5.50
2007,05,18,03,27,5.50
2007,05,18,03,28,5.50
2007,05,18,03,29,5.50
2007,05,18,03,30,5.50
2007,05,18,03,31,5.50
2007,05,18,03,32,5.50
2007,05,18,03,33,5.50
2007,05,18,03,34,5.50
2007,05,18,03,35,5.50
2007,05,18,03,36,5.50
2007,05,18,03,37,5.50
2007,05,18,03,38,5.50
2007,05,18,03,39,5.40
2007,05,18,03,40,5.40
2007,05,18,03,41,5.40
2007,05,18,03,42,5.40
2007,05,18,03,43,5.40
2007,05,18,03,44,5.40
2007,05,18,03,45,5.40
2007,05,18,03,46,5.40
2007,05,18,03,47,5.40
2007,05,18,03,48,5.40
2007,05,18,03,49,5.40
2007,05,18,03,50,5.30
2007,05,18,03,51,5.30
2007,05,18,03,52,5.30
2007,05,18,03,53,5.30
2007,05,18,03,54,5.30
2007,05,18,03,55,5.30
2007,05,18,03,56,5.20
2007,05,18,03,57,5.20
2007,05,18,03,58,5.20
2007,05,18,03,59,5.10
2007,05,18,04,00,5.10
2007,05,18,04,01,5.10
2007,05,18,04,02,5.10
2007,05,18,04,03,5.10
2007,05,18,04,04,5.10
2007,05,18,04,05,5.10
2007,05,18,04,06,5.10
2007,05,18,04,07,5.10
2007,05,18,04,08,5.00
2007,05,18,04,09,4.90
2007,05,18,04,10,4.90
2007,05,18,04,11,5.00
2007,05,18,04,12,5.10
2007,05,18,04,13,5.10
2007,05,18,04,14,5.10
2007,05,18,04,15,5.10
2007,05,18,04,16,5.10
2007,05,18,04,17,5.10
2007,05,18,04,18,5.10
2007,05,18,04,19,5.10
2007,05,18,04,20,5.10
2007,05,18,04,21,5.10
2007,05,18,04,22,5.10
2007,05,18,04,23,5.10
2007,05,18,04,24,5.10
2007,05,18,04,25,5.10
2007,05,18,04,26,5.00
2007,05,18,04,27,4.90
2007,05,18,04,28,4.90
2007,05,18,04,29,4.90
2007,05,18,04,30,4.90
2007,05,18,04,31,4.90
2007,05,18,04,32,4.90
2007,05,18,04,33,4.90
2007,05,18,04,34,4.90
2007,05,18,04,35,4.90
2007,05,18,04,36,4.80
2007,05,18,04,37,4.80
2007,05,18,04,38,4.80
2007,05,18,04,39,4.80
2007,05,18,04,40,4.70
2007,05,18,04,41,4.70
2007,05,18,04,42,4.70
2007,05,18,04,43,4.70
2007,05,18,04,44,4.70
2007,05,18,04,45,4.70
2007,05,18,04,46,4.70
2007,05,18,04,47,4.70
2007,05,18,04,48,4.80
2007,05,18,04,49,4.80
2007,05,18,04,50,4.80
2007,05,18,04,51,4.80
2007,05,18,04,52,4.90
2007,05,18,04,53,4.90
2007,05,18,04,54,4.90
2007,05,18,04,55,4.90
2007,05,18,04,56,4.90
2007,05,18,04,57,4.90
2007,05,18,04,58,5.00
2007,05,18,04,59,5.10
2007,05,18,05,00,5.10
2007,05,18,05,01,5.10
2007,05,18,05,02,5.20
2007,05,18,05,03,5.20
2007,05,18,05,04,5.20
2007,05,18,05,05,5.20
2007,05,18,05,06,5.20
2007,05,18,05,07,5.10
2007,05,18,05,08,5.10
2007,05,18,05,09,5.10
2007,05,18,05,10,5.10
2007,05,18,05,11,4.90
2007,05,18,05,12,4.90
2007,05,18,05,13,4.90
2007,05,18,05,14,4.90
2007,05,18,05,15,4.90
2007,05,18,05,16,4.90
2007,05,18,05,17,4.90
2007,05,18,05,18,4.90
2007,05,18,05,19,4.90
2007,05,18,05,20,4.90
2007,05,18,05,21,4.90
2007,05,18,05,22,4.90
2007,05,18,05,23,4.90
2007,05,18,05,24,4.90
2007,05,18,05,25,4.80
2007,05,18,05,26,4.70
2007,05,18,05,27,4.70
2007,05,18,05,28,4.60
2007,05,18,05,29,4.60
2007,05,18,05,30,4.60
2007,05,18,05,31,4.50
2007,05,18,05,32,4.50
2007,05,18,05,33,4.40
2007,05,18,05,34,4.40
2007,05,18,05,35,4.40
2007,05,18,05,36,4.40
2007,05,18,05,37,4.40
2007,05,18,05,38,4.40
2007,05,18,05,39,4.40
2007,05,18,05,40,4.50
2007,05,18,05,41,4.50
2007,05,18,05,42,4.50
2007,05,18,05,43,4.50
2007,05,18,05,44,4.50
2007,05,18,05,45,4.50
2007,05,18,05,46,4.60
2007,05,18,05,47,4.60
2007,05,18,05,48,4.60
2007,05,18,05,49,4.60
2007,05,18,05,50,4.60
2007,05,18,05,51,4.70
2007,05,18,05,52,4.80
2007,05,18,05,53,4.80
2007,05,18,05,54,4.80
2007,05,18,05,55,4.80
2007,05,18,05,56,4.90
2007,05,18,05,57,4.90
2007,05,18,05,58,4.90
2007,05,18,05,59,4.90
2007,05,18,06,00,4.90
2007,05,18,06,01,5.00
2007,05,18,06,02,5.10
2007,05,18,06,03,5.10
2007,05,18,06,04,5.10
2007,05,18,06,05,5.10
2007,05,18,06,06,5.10
2007,05,18,06,07,5.10
2007,05,18,06,08,5.20
2007,05,18,06,09,5.20
2007,05,18,06,10,5.30
2007,05,18,06,11,5.30
2007,05,18,06,12,5.30
2007,05,18,06,13,5.30
2007,05,18,06,14,5.30
2007,05,18,06,15,5.40
2007,05,18,06,16,5.50
2007,05,18,06,17,5.50
2007,05,18,06,18,5.50
2007,05,18,06,19,5.50
2007,05,18,06,20,5.50
2007,05,18,06,21,5.60
2007,05,18,06,22,5.60
2007,05,18,06,23,5.60
2007,05,18,06,24,5.70
2007,05,18,06,25,5.70
2007,05,18,06,26,5.80
2007,05,18,06,27,5.80
2007,05,18,06,28,5.80
2007,05,18,06,29,5.90
2007,05,18,06,30,5.90
2007,05,18,06,31,5.90
2007,05,18,06,32,6.00
2007,05,18,06,33,6.00
2007,05,18,06,34,6.10
2007,05,18,06,35,6.10
2007,05,18,06,36,6.20
2007,05,18,06,37,6.20
2007,05,18,06,38,6.20
2007,05,18,06,39,6.30
2007,05,18,06,40,6.30
2007,05,18,06,41,6.40
2007,05,18,06,42,6.40
2007,05,18,06,43,6.40
2007,05,18,06,44,6.50
2007,05,18,06,45,6.60
2007,05,18,06,46,6.60
2007,05,18,06,47,6.70
2007,05,18,06,48,6.80
2007,05,18,06,49,6.90
2007,05,18,06,50,7.00
2007,05,18,06,51,7.10
2007,05,18,06,52,7.20
2007,05,18,06,53,7.30
2007,05,18,06,54,7.40
2007,05,18,06,55,7.50
2007,05,18,06,56,7.50
2007,05,18,06,57,7.60
2007,05,18,06,58,7.70
2007,05,18,06,59,7.80
2007,05,18,07,00,7.80
2007,05,18,07,01,7.80
2007,05,18,07,02,7.90
2007,05,18,07,03,7.90
2007,05,18,07,04,8.00
2007,05,18,07,05,8.10
2007,05,18,07,06,8.20
2007,05,18,07,07,8.20
2007,05,18,07,08,8.30
2007,05,18,07,09,8.30
2007,05,18,07,10,8.40
2007,05,18,07,11,8.50
2007,05,18,07,12,8.70
2007,05,18,07,13,8.90
2007,05,18,07,14,9.00
2007,05,18,07,15,9.20
2007,05,18,07,16,9.40
2007,05,18,07,17,9.50
2007,05,18,07,18,9.60
2007,05,18,07,19,9.70
2007,05,18,07,20,9.80
2007,05,18,07,21,9.90
2007,05,18,07,22,10.00
2007,05,18,07,23,10.20
2007,05,18,07,24,10.30
2007,05,18,07,25,10.40
2007,05,18,07,26,10.50
2007,05,18,07,27,10.60
2007,05,18,07,28,10.70
2007,05,18,07,29,10.80
2007,05,18,07,30,10.90
2007,05,18,07,31,10.90
2007,05,18,07,32,10.90
2007,05,18,07,33,10.90
2007,05,18,07,34,10.90
2007,05,18,07,35,11.10
2007,05,18,07,36,11.10
2007,05,18,07,37,11.10
2007,05,18,07,38,11.10
2007,05,18,07,39,11.10
2007,05,18,07,40,11.20
2007,05,18,07,41,11.20
2007,05,18,07,42,11.20
2007,05,18,07,43,11.30
2007,05,18,07,44,11.30
2007,05,18,07,45,11.40
2007,05,18,07,46,11.40
2007,05,18,07,47,11.50
2007,05,18,07,48,11.60
2007,05,18,07,49,11.70
2007,05,18,07,50,11.80
2007,05,18,07,51,11.80
2007,05,18,07,52,11.80
2007,05,18,07,53,11.90
2007,05,18,07,54,11.90
2007,05,18,07,55,12.00
2007,05,18,07,56,12.10
2007,05,18,07,57,12.20
2007,05,18,07,58,12.20
2007,05,18,07,59,12.30
2007,05,18,08,00,12.30
2007,05,18,08,01,12.30
2007,05,18,08,02,12.40
2007,05,18,08,03,12.40
2007,05,18,08,04,12.50
2007,05,18,08,05,12.60
2007,05,18,08,06,12.70
2007,05,18,08,07,12.70
2007,05,18,08,08,12.80
2007,05,18,08,09,12.90
2007,05,18,08,10,12.90
2007,05,18,08,11,12.90
2007,05,18,08,12,13.00
2007,05,18,08,13,13.00
2007,05,18,08,14,13.00
2007,05,18,08,15,13.10
2007,05,18,08,16,13.00
2007,05,18,08,17,12.90
2007,05,18,08,18,12.90
2007,05,18,08,19,12.90
2007,05,18,08,20,13.00
2007,05,18,08,21,13.10
2007,05,18,08,22,13.20
2007,05,18,08,23,13.20
2007,05,18,08,24,13.30
2007,05,18,08,25,13.30
2007,05,18,08,26,13.40
2007,05,18,08,27,13.50
2007,05,18,08,28,13.60
2007,05,18,08,29,13.60
2007,05,18,08,30,13.60
2007,05,18,08,31,13.60
2007,05,18,08,32,13.60
2007,05,18,08,33,13.50
2007,05,18,08,34,13.50
2007,05,18,08,35,13.50
2007,05,18,08,36,13.40
2007,05,18,08,37,13.30
2007,05,18,08,38,13.40
2007,05,18,08,39,13.50
2007,05,18,08,40,13.50
2007,05,18,08,41,13.60
2007,05,18,08,42,13.70
2007,05,18,08,43,13.80
2007,05,18,08,44,13.90
2007,05,18,08,45,14.00
2007,05,18,08,46,14.00
2007,05,18,08,47,14.00
2007,05,18,08,48,14.00
2007,05,18,08,49,14.00
2007,05,18,08,50,13.90
2007,05,18,08,51,13.90
2007,05,18,08,52,13.80
2007,05,18,08,53,13.70
2007,05,18,08,54,13.70
2007,05,18,08,55,13.80
2007,05,18,08,56,13.80
2007,05,18,08,57,13.80
2007,05,18,08,58,13.80
2007,05,18,08,59,13.80
2007,05,18,09,00,13.90
2007,05,18,09,01,13.90
2007,05,18,09,02,14.00
2007,05,18,09,03,14.10
2007,05,18,09,04,14.00
2007,05,18,09,05,14.00
2007,05,18,09,06,14.00
2007,05,18,09,07,14.00
2007,05,18,09,08,14.00
2007,05,18,09,09,14.00
2007,05,18,09,10,14.00
2007,05,18,09,11,14.00
2007,05,18,09,12,14.10
2007,05,18,09,13,14.10
2007,05,18,09,14,14.10
2007,05,18,09,15,14.10
2007,05,18,09,16,14.20
2007,05,18,09,17,14.20
2007,05,18,09,18,14.20
2007,05,18,09,19,14.20
2007,05,18,09,20,14.20
2007,05,18,09,21,14.20
2007,05,18,09,22,14.20
2007,05,18,09,23,14.20
2007,05,18,09,24,14.10
2007,05,18,09,25,14.00
2007,05,18,09,26,14.00
2007,05,18,09,27,14.00
2007,05,18,09,28,14.00
2007,05,18,09,29,14.00
2007,05,18,09,30,13.90
2007,05,18,09,31,14.00
2007,05,18,09,32,13.90
2007,05,18,09,33,13.90
2007,05,18,09,34,13.90
2007,05,18,09,35,14.00
2007,05,18,09,36,14.00
2007,05,18,09,37,14.00
2007,05,18,09,38,14.00
2007,05,18,09,39,14.10
2007,05,18,09,40,14.20
2007,05,18,09,41,14.10
2007,05,18,09,42,14.10
2007,05,18,09,43,14.20
2007,05,18,09,44,14.10
2007,05,18,09,45,14.10
2007,05,18,09,46,14.00
2007,05,18,09,47,14.00
2007,05,18,09,48,14.00
2007,05,18,09,49,14.10
2007,05,18,09,50,14.10
2007,05,18,09,51,14.10
2007,05,18,09,52,14.20
2007,05,18,09,53,14.30
2007,05,18,09,54,14.40
2007,05,18,09,55,14.50
2007,05,18,09,56,14.50
2007,05,18,09,57,14.50
2007,05,18,09,58,14.60
2007,05,18,09,59,14.50
2007,05,18,10,00,14.50
2007,05,18,10,01,14.60
2007,05,18,10,02,14.60
2007,05,18,10,03,14.60
2007,05,18,10,04,14.70
2007,05,18,10,05,14.80
2007,05,18,10,06,14.80
2007,05,18,10,07,14.70
2007,05,18,10,08,14.60
2007,05,18,10,09,14.60
2007,05,18,10,10,14.60
2007,05,18,10,11,14.70
2007,05,18,10,12,14.70
2007,05,18,10,13,14.70
2007,05,18,10,14,14.70
2007,05,18,10,15,14.80
2007,05,18,10,16,14.80
2007,05,18,10,17,14.80
2007,05,18,10,18,14.80
2007,05,18,10,19,14.80
2007,05,18,10,20,14.80
2007,05,18,10,21,14.80
2007,05,18,10,22,14.90
2007,05,18,10,23,14.90
2007,05,18,10,24,14.90
2007,05,18,10,25,14.80
2007,05,18,10,26,14.90
2007,05,18,10,27,15.00
2007,05,18,10,28,15.10
2007,05,18,10,29,15.20
2007,05,18,10,30,15.20
2007,05,18,10,31,15.30
2007,05,18,10,32,15.40
2007,05,18,10,33,15.50
2007,05,18,10,34,15.60
2007,05,18,10,35,15.60
2007,05,18,10,36,15.70
2007,05,18,10,37,15.60
2007,05,18,10,38,15.60
2007,05,18,10,39,15.60
2007,05,18,10,40,15.60
2007,05,18,10,41,15.70
2007,05,18,10,42,15.80
2007,05,18,10,43,15.70
2007,05,18,10,44,15.60
2007,05,18,10,45,15.40
2007,05,18,10,46,15.40
2007,05,18,10,47,15.30
2007,05,18,10,48,15.40
2007,05,18,10,49,15.40
2007,05,18,10,50,15.40
2007,05,18,10,51,15.50
2007,05,18,10,52,15.40
2007,05,18,10,53,15.40
2007,05,18,10,54,15.40
2007,05,18,10,55,15.50
2007,05,18,10,56,15.60
2007,05,18,10,57,15.60
2007,05,18,10,58,15.60
2007,05,18,10,59,15.60
2007,05,18,11,00,15.70
2007,05,18,11,01,15.70
2007,05,18,11,02,15.70
2007,05,18,11,03,15.80
2007,05,18,11,04,15.80
2007,05,18,11,05,15.80
2007,05,18,11,06,15.80
2007,05,18,11,07,15.80
2007,05,18,11,08,16.00
2007,05,18,11,09,16.10
2007,05,18,11,10,16.20
2007,05,18,11,11,16.30
2007,05,18,11,12,16.30
2007,05,18,11,13,16.30
2007,05,18,11,14,16.10
2007,05,18,11,15,16.10
2007,05,18,11,16,16.10
2007,05,18,11,17,16.10
2007,05,18,11,18,16.30
2007,05,18,11,19,16.30
2007,05,18,11,20,16.50
2007,05,18,11,21,16.60
2007,05,18,11,22,16.60
2007,05,18,11,23,16.60
2007,05,18,11,24,16.90
2007,05,18,11,25,17.10
2007,05,18,11,26,17.30
2007,05,18,11,27,17.40
2007,05,18,11,28,17.50
2007,05,18,11,29,17.50
2007,05,18,11,30,17.50
2007,05,18,11,31,17.60
2007,05,18,11,32,17.70
2007,05,18,11,33,17.60
2007,05,18,11,34,17.60
2007,05,18,11,35,17.50
2007,05,18,11,36,17.50
2007,05,18,11,37,17.70
2007,05,18,11,38,17.80
2007,05,18,11,39,17.90
2007,05,18,11,40,18.10
2007,05,18,11,41,18.10
2007,05,18,11,42,18.00
2007,05,18,11,43,17.80
2007,05,18,11,44,17.70
2007,05,18,11,45,17.50
2007,05,18,11,46,17.40
2007,05,18,11,47,17.40
2007,05,18,11,48,17.30
2007,05,18,11,49,17.50
2007,05,18,11,50,17.70
2007,05,18,11,51,17.70
2007,05,18,11,52,17.60
2007,05,18,11,53,17.50
2007,05,18,11,54,17.50
2007,05,18,11,55,17.50
2007,05,18,11,56,17.50
2007,05,18,11,57,17.50
2007,05,18,11,58,17.50
2007,05,18,11,59,17.60
2007,05,18,12,00,17.60
2007,05,18,12,01,17.50
2007,05,18,12,02,17.50
2007,05,18,12,03,17.50
2007,05,18,12,04,17.50
2007,05,18,12,05,17.70
2007,05,18,12,06,17.70
2007,05,18,12,07,17.70
2007,05,18,12,08,17.80
2007,05,18,12,09,17.70
2007,05,18,12,10,17.50
2007,05,18,12,11,17.30
2007,05,18,12,12,17.30
2007,05,18,12,13,17.40
2007,05,18,12,14,17.60
2007,05,18,12,15,17.70
2007,05,18,12,16,17.80
2007,05,18,12,17,17.90
2007,05,18,12,18,17.90
2007,05,18,12,19,17.90
2007,05,18,12,20,18.10
2007,05,18,12,21,18.10
2007,05,18,12,22,18.10
2007,05,18,12,23,18.10
2007,05,18,12,24,18.00
2007,05,18,12,25,17.90
2007,05,18,12,26,17.90
2007,05,18,12,27,17.80
2007,05,18,12,28,17.80
2007,05,18,12,29,17.80
2007,05,18,12,30,17.80
2007,05,18,12,31,17.70
2007,05,18,12,32,17.70
2007,05,18,12,33,17.70
2007,05,18,12,34,17.50
2007,05,18,12,35,17.50
2007,05,18,12,36,17.50
2007,05,18,12,37,17.40
2007,05,18,12,38,17.40
2007,05,18,12,39,17.40
2007,05,18,12,40,17.40
2007,05,18,12,41,17.30
2007,05,18,12,42,17.30
2007,05,18,12,43,17.50
2007,05,18,12,44,17.70
2007,05,18,12,45,17.80
2007,05,18,12,46,17.90
2007,05,18,12,47,17.90
2007,05,18,12,48,17.90
2007,05,18,12,49,17.90
2007,05,18,12,50,17.80
2007,05,18,12,51,17.70
2007,05,18,12,52,17.80
2007,05,18,12,53,17.90
2007,05,18,12,54,17.90
2007,05,18,12,55,17.90
2007,05,18,12,56,17.90
2007,05,18,12,57,17.90
2007,05,18,12,58,17.90
2007,05,18,12,59,18.10
2007,05,18,13,00,18.10
2007,05,18,13,01,18.10
2007,05,18,13,02,18.10
2007,05,18,13,03,18.10
2007,05,18,13,04,18.20
2007,05,18,13,05,18.30
2007,05,18,13,06,18.30
2007,05,18,13,07,18.20
2007,05,18,13,08,18.20
2007,05,18,13,09,18.20
2007,05,18,13,10,18.20
2007,05,18,13,11,18.30
2007,05,18,13,12,18.30
2007,05,18,13,13,18.30
2007,05,18,13,14,18.20
2007,05,18,13,15,18.00
2007,05,18,13,16,17.90
2007,05,18,13,17,17.90
2007,05,18,13,18,17.70
2007,05,18,13,19,17.70
2007,05,18,13,20,17.80
2007,05,18,13,21,17.90
2007,05,18,13,22,17.80
2007,05,18,13,23,17.90
2007,05,18,13,24,17.90
2007,05,18,13,25,18.00
2007,05,18,13,26,18.10
2007,05,18,13,27,18.10
2007,05,18,13,28,18.10
2007,05,18,13,29,18.10
2007,05,18,13,30,18.20
2007,05,18,13,31,18.20
2007,05,18,13,32,18.20
2007,05,18,13,33,18.20
2007,05,18,13,34,18.10
2007,05,18,13,35,17.90
2007,05,18,13,36,17.90
2007,05,18,13,37,17.80
2007,05,18,13,38,17.70
2007,05,18,13,39,17.70
2007,05,18,13,40,17.70
2007,05,18,13,41,17.70
2007,05,18,13,42,17.70
2007,05,18,13,43,17.70
2007,05,18,13,44,17.50
2007,05,18,13,45,17.40
2007,05,18,13,46,17.30
2007,05,18,13,47,17.30
2007,05,18,13,48,17.30
2007,05,18,13,49,17.20
2007,05,18,13,50,17.20
2007,05,18,13,51,17.20
2007,05,18,13,52,17.30
2007,05,18,13,53,17.50
2007,05,18,13,54,17.60
2007,05,18,13,55,17.70
2007,05,18,13,56,17.70
2007,05,18,13,57,17.80
2007,05,18,13,58,17.90
2007,05,18,13,59,17.90
2007,05,18,14,00,17.80
2007,05,18,14,01,17.60
2007,05,18,14,02,17.60
2007,05,18,14,03,17.50
2007,05,18,14,04,17.30
2007,05,18,14,05,17.20
2007,05,18,14,06,17.00
2007,05,18,14,07,17.10
2007,05,18,14,08,17.10
2007,05,18,14,09,17.10
2007,05,18,14,10,17.30
2007,05,18,14,11,17.40
2007,05,18,14,12,17.40
2007,05,18,14,13,17.30
2007,05,18,14,14,17.20
2007,05,18,14,15,17.10
2007,05,18,14,16,17.20
2007,05,18,14,17,17.20
2007,05,18,14,18,17.50
2007,05,18,14,19,17.70
2007,05,18,14,20,17.80
2007,05,18,14,21,17.80
2007,05,18,14,22,17.80
2007,05,18,14,23,17.80
2007,05,18,14,24,17.70
2007,05,18,14,25,17.70
2007,05,18,14,26,17.80
2007,05,18,14,27,18.00
2007,05,18,14,28,18.00
2007,05,18,14,29,17.90
2007,05,18,14,30,17.70
2007,05,18,14,31,17.60
2007,05,18,14,32,17.70
2007,05,18,14,33,17.70
2007,05,18,14,34,17.80
2007,05,18,14,35,17.90
2007,05,18,14,36,17.90
2007,05,18,14,37,17.90
2007,05,18,14,38,18.10
2007,05,18,14,39,18.30
2007,05,18,14,40,18.50
2007,05,18,14,41,18.60
2007,05,18,14,42,18.60
2007,05,18,14,43,18.40
2007,05,18,14,44,18.30
2007,05,18,14,45,18.40
2007,05,18,14,46,18.50
2007,05,18,14,47,18.50
2007,05,18,14,48,18.50
2007,05,18,14,49,18.50
2007,05,18,14,50,18.50
2007,05,18,14,51,18.40
2007,05,18,14,52,18.30
2007,05,18,14,53,18.20
2007,05,18,14,54,18.20
2007,05,18,14,55,18.20
2007,05,18,14,56,18.10
2007,05,18,14,57,18.00
2007,05,18,14,58,18.00
2007,05,18,14,59,17.90
2007,05,18,15,00,18.10
2007,05,18,15,01,18.00
2007,05,18,15,02,17.90
2007,05,18,15,03,17.80
2007,05,18,15,04,17.60
2007,05,18,15,05,17.50
2007,05,18,15,06,17.40
2007,05,18,15,07,17.30
2007,05,18,15,08,17.30
2007,05,18,15,09,17.40
2007,05,18,15,10,17.40
2007,05,18,15,11,17.50
2007,05,18,15,12,17.50
2007,05,18,15,13,17.50
2007,05,18,15,14,17.50
2007,05,18,15,15,17.50
2007,05,18,15,16,17.50
2007,05,18,15,17,17.60
2007,05,18,15,18,17.70
2007,05,18,15,19,17.80
2007,05,18,15,20,17.90
2007,05,18,15,21,17.90
2007,05,18,15,22,17.90
2007,05,18,15,23,18.00
2007,05,18,15,24,18.10
2007,05,18,15,25,18.10
2007,05,18,15,26,18.20
2007,05,18,15,27,18.10
2007,05,18,15,28,17.90
2007,05,18,15,29,17.90
2007,05,18,15,30,17.90
2007,05,18,15,31,17.70
2007,05,18,15,32,17.70
2007,05,18,15,33,17.70
2007,05,18,15,34,17.70
2007,05,18,15,35,17.80
2007,05,18,15,36,17.80
2007,05,18,15,37,17.80
2007,05,18,15,38,17.80
2007,05,18,15,39,17.80
2007,05,18,15,40,17.70
2007,05,18,15,41,17.70
2007,05,18,15,42,17.60
2007,05,18,15,43,17.60
2007,05,18,15,44,17.50
2007,05,18,15,45,17.30
2007,05,18,15,46,17.20
2007,05,18,15,47,17.10
2007,05,18,15,48,16.90
2007,05,18,15,49,16.50
2007,05,18,15,50,16.10
2007,05,18,15,51,15.90
2007,05,18,15,52,15.60
2007,05,18,15,53,15.50
2007,05,18,15,54,15.30
2007,05,18,15,55,15.30
2007,05,18,15,56,15.10
2007,05,18,15,57,15.00
2007,05,18,15,58,15.00
2007,05,18,15,59,14.90
2007,05,18,16,00,14.90
2007,05,18,16,01,14.90
2007,05,18,16,02,14.90
2007,05,18,16,03,14.90
2007,05,18,16,04,15.00
2007,05,18,16,05,15.00
2007,05,18,16,06,15.00
2007,05,18,16,07,14.90
2007,05,18,16,08,15.00
2007,05,18,16,09,15.00
2007,05,18,16,10,15.10
2007,05,18,16,11,15.00
2007,05,18,16,12,15.00
2007,05,18,16,13,15.00
2007,05,18,16,14,14.90
2007,05,18,16,15,14.80
2007,05,18,16,16,14.80
2007,05,18,16,17,14.70
2007,05,18,16,18,14.70
2007,05,18,16,19,14.70
2007,05,18,16,20,14.70
2007,05,18,16,21,14.70
2007,05,18,16,22,14.80
2007,05,18,16,23,14.80
2007,05,18,16,24,14.80
2007,05,18,16,25,14.80
2007,05,18,16,26,14.90
2007,05,18,16,27,15.00
2007,05,18,16,28,15.10
2007,05,18,16,29,15.10
2007,05,18,16,30,15.10
2007,05,18,16,31,15.10
2007,05,18,16,32,15.10
2007,05,18,16,33,15.10
2007,05,18,16,34,15.10
2007,05,18,16,35,15.10
2007,05,18,16,36,15.10
2007,05,18,16,37,15.20
2007,05,18,16,38,15.20
2007,05,18,16,39,15.20
2007,05,18,16,40,15.30
2007,05,18,16,41,15.30
2007,05,18,16,42,15.30
2007,05,18,16,43,15.30
2007,05,18,16,44,15.30
2007,05,18,16,45,15.30
2007,05,18,16,46,15.40
2007,05,18,16,47,15.40
2007,05,18,16,48,15.40
2007,05,18,16,49,15.50
2007,05,18,16,50,15.50
2007,05,18,16,51,15.50
2007,05,18,16,52,15.40
2007,05,18,16,53,15.40
2007,05,18,16,54,15.40
2007,05,18,16,55,15.40
2007,05,18,16,56,15.40
2007,05,18,16,57,15.40
2007,05,18,16,58,15.40
2007,05,18,16,59,15.40
2007,05,18,17,00,15.40
2007,05,18,17,01,15.50
2007,05,18,17,02,15.50
2007,05,18,17,03,15.60
2007,05,18,17,04,15.60
2007,05,18,17,05,15.70
2007,05,18,17,06,15.70
2007,05,18,17,07,15.80
2007,05,18,17,08,15.80
2007,05,18,17,09,15.80
2007,05,18,17,10,15.80
2007,05,18,17,11,15.80
2007,05,18,17,12,15.80
2007,05,18,17,13,15.80
2007,05,18,17,14,15.80
2007,05,18,17,15,15.70
2007,05,18,17,16,15.70
2007,05,18,17,17,15.70
2007,05,18,17,18,15.70
2007,05,18,17,19,15.70
2007,05,18,17,20,15.70
2007,05,18,17,21,15.70
2007,05,18,17,22,15.60
2007,05,18,17,23,15.60
2007,05,18,17,24,15.60
2007,05,18,17,25,15.50
2007,05,18,17,26,15.50
2007,05,18,17,27,15.40
2007,05,18,17,28,15.40
2007,05,18,17,29,15.40
2007,05,18,17,30,15.30
2007,05,18,17,31,15.30
2007,05,18,17,32,15.20
2007,05,18,17,33,15.10
2007,05,18,17,34,15.10
2007,05,18,17,35,15.00
2007,05,18,17,36,14.90
2007,05,18,17,37,14.80
2007,05,18,17,38,14.80